Location: NCO
(38.4404°N, 77.1340°W)
Time: 12:04:11
(UTC-04:00)

Hubble Space Telescope - Visible Passes

Search period start: 24 March 2017 00:00
Search period end: 03 April 2017 00:00
Orbit: 538 x 542 km, 28.5° (Epoch: 22 March)

Date Brightness Start Highest point End Pass type
(mag) Time Alt. Az. Time Alt. Az. Time Alt. Az.
26 Mar 3.2 05:24:27 10° S 05:25:21 11° SSE 05:26:34 10° SE visible
27 Mar 3.1 05:14:59 13° SSE 05:15:14 13° SSE 05:17:10 10° SE visible
28 Mar 3.0 05:05:30 15° SSE 05:05:30 15° SSE 05:07:28 10° SE visible
29 Mar 3.0 04:56:00 15° SSE 04:56:00 15° SSE 04:57:38 10° SE visible
29 Mar 2.6 06:32:31 10° SW 06:35:35 20° S 06:38:40 10° SE visible
30 Mar 3.1 04:46:30 15° SE 04:46:30 15° SE 04:47:43 10° SE visible
30 Mar 2.6 06:22:29 10° SW 06:25:29 20° S 06:28:30 10° SE visible
31 Mar 3.3 04:37:01 13° SE 04:37:01 13° SE 04:37:45 10° SE visible
31 Mar 2.6 06:12:29 10° SW 06:15:23 19° S 06:18:18 10° SE visible
01 Apr 3.5 04:27:34 11° SE 04:27:34 11° SE 04:27:43 10° SE visible
01 Apr 2.6 06:02:56 11° SW 06:05:17 17° S 06:08:01 10° SSE visible
02 Apr 2.7 05:53:32 13° SW 05:55:10 16° SSW 05:57:39 10° SSE visible
